This is the latest recevied weather packets stored in our database for station/object OK5TVR-14. If no packets are shown the sender has not sent any weather packets the latest 10 day(s).
| Time | Temp. | Humidity | Pressure | Rain* | Wind** | Luminosity | Snow |
|---|---|---|---|---|---|---|---|
| 1787683311 | 20.56° C | 59% | 1010.9 hPa | 0 mm | - | 0 W/m² | - |
| 1787682411 | 20.56° C | 56% | 1010.5 hPa | 0 mm | - | 0 W/m² | - |
| 1787681511 | 21.11° C | 55% | 1010.3 hPa | 0 mm | - | 0 W/m² | - |
| 1787680611 | 21.11° C | 53% | 1010.1 hPa | 0 mm | - | 0 W/m² | - |
| 1787679711 | 21.67° C | 53% | 1009.9 hPa | 0 mm | - | 0 W/m² | - |
| 1787678811 | 21.67° C | 51% | 1009.8 hPa | 0 mm | - | 0 W/m² | - |
| 1787677910 | 21.67° C | 50% | 1009.7 hPa | 0 mm | - | 0 W/m² | - |
| 1787677011 | 22.22° C | 49% | 1009.6 hPa | 0 mm | - | 0 W/m² | - |
| 1787676110 | 22.22° C | 49% | 1009.5 hPa | 0 mm | - | 0 W/m² | - |
| 1787675211 | 22.78° C | 48% | 1009.3 hPa | 0 mm | - | 0 W/m² | - |
| 1787674310 | 23.33° C | 47% | 1009.2 hPa | 0 mm | - | 0 W/m² | - |
| 1787673410 | 23.33° C | 45% | 1009.1 hPa | 0 mm | - | 0 W/m² | - |
| 1787672510 | 23.89° C | 45% | 1008.9 hPa | 0 mm | - | 0 W/m² | - |
| 1787671610 | 23.33° C | 45% | 1008.9 hPa | 0 mm | - | 0 W/m² | - |
| 1787670710 | 23.89° C | 45% | 1008.9 hPa | 0 mm | - | 0 W/m² | - |
| 1787669810 | 23.89° C | 45% | 1008.8 hPa | 0 mm | - | 0 W/m² | - |
| 1787668910 | 23.89° C | 44% | 1008.6 hPa | 0 mm | - | 0 W/m² | - |
| 1787668010 | 23.89° C | 44% | 1008.7 hPa | 0 mm | - | 0 W/m² | - |
| 1787667110 | 24.44° C | 43% | 1008.5 hPa | 0 mm | - | 0 W/m² | - |
| 1787666210 | 25° C | 43% | 1008.3 hPa | 0 mm | - | 0 W/m² | - |
| 1787665310 | 25° C | 43% | 1008.2 hPa | 0 mm | - | 0 W/m² | - |
| 1787664410 | 26.11° C | 41% | 1008.1 hPa | 0 mm | - | 0 W/m² | - |
| 1787663510 | 26.11° C | 41% | 1008 hPa | 0 mm | - | 0 W/m² | - |
| 1787662610 | 25.56° C | 42% | 1008.2 hPa | 0 mm | - | 0 W/m² | - |
| 1787661710 | 25.56° C | 43% | 1008.1 hPa | 0 mm | - | 0 W/m² | - |
* Rain latest hour (hover to see other rain measurements)
** Current wind speed in m/s (hover to see current wind gust speed)